Location: Malvern Link
(52.1333°N, 2.3000°W)
Time: 19:20:17
(UTC+00:00)

H-2A R/B - Pass Details

Date: 18 September 2020
Orbit: 734 x 836 km, 98.2° (Epoch: 22 October)

Event Time Altitude Azimuth Distance (km) Brightness Sun altitude
Rises 19:14:51 0° 170° (S) 3,164 4.9 -9.7°
Reaches altitude 10° 19:17:07 10° 172° (S) 2,253 4.2 -10.1°
Maximum altitude 19:22:04 72° 257° (WSW) 797 2.3 -10.8°
Drops below altitude 10° 19:27:10 10° 342° (NNW) 2,323 5.0 -11.5°
Sets 19:29:32 0° 345° (NNW) 3,270 5.8 -11.9°
